1488916800.14,29123,9.5,72906.8,-9.87,-20.25,-19.57,0,*52
1488916801.4,29124,9.5,72908.0,-9.87,-20.25,-19.57,0,*55
1488916802.67,29125,9.5,72908.3,-9.87,-20.35,-19.61,0,*50
1488916803.95,29126,9.5,72908.5,-9.87,-20.35,-19.57,0,*56
1488916805.23,29127,9.5,72906.5,-9.87,-20.35,-19.57,0,*57
1488916806.51,29128,9.5,72904.0,-9.87,-20.35,-19.57,0,*58
1488916807.77,29129,9.5,72904.5,-9.87,-20.25,-19.57,0,*58
1488916809.05,29130,9.5,72904.8,-9.87,-20.35,-19.57,0,*51
1488916810.33,29131,9.5,72906.5,-9.87,-20.35,-19.57,0,*50
1488916811.61,29132,9.5,72910.5,-9.87,-20.35,-19.57,0,*53
1488916812.81,29133,9.5,72906.3,-9.85,-20.25,-19.47,0,*50
1488916814.07,29134,9.5,72904.5,-9.87,-20.25,-19.57,0,*54
1488916815.31,29135,9.5,72904.3,-9.89,-20.39,-19.61,0,*53
1488916816.54,29136,9.5,72904.0,-9.89,-20.39,-19.65,0,*54
1488916817.77,29137,9.5,72902.8,-9.89,-20.39,-19.61,0,*51
1488916819.01,29138,9.5,72908.5,-9.89,-20.39,-19.61,0,*5E
1488916820.23,29139,9.5,72906.5,-9.87,-20.25,-19.47,0,*58
1488916821.48,29140,9.5,72904.0,-9.87,-20.35,-19.47,0,*57
1488916822.71,29141,9.5,72904.0,-9.91,-20.39,-19.51,0,*5A
1488916823.92,29142,9.5,72906.8,-9.89,-20.39,-19.51,0,*50
1488916825.15,29143,9.5,72904.3,-9.89,-20.39,-19.61,0,*52
1488916826.39,29144,9.5,72906.3,-9.89,-20.39,-19.61,0,*55
1488916827.62,29145,9.5,72904.5,-9.89,-20.39,-19.61,0,*54
1488916828.88,29146,9.5,72906.3,-9.91,-20.39,-19.61,0,*5E
1488916830.12,29147,9.5,72904.5,-9.89,-20.39,-19.61,0,*56
1488916831.38,29148,9.5,72906.3,-9.91,-20.39,-19.61,0,*50
1488916832.61,29149,9.5,72904.5,-9.89,-20.39,-19.61,0,*58
1488916833.87,29150,9.5,72904.8,-9.91,-20.43,-19.65,0,*50
1488916835.14,29151,9.5,72906.3,-9.91,-20.43,-19.61,0,*55
1488916836.4,29152,9.5,72904.3,-9.91,-20.39,-19.61,0,*5B
1488916837.66,29153,9.5,72908.0,-9.91,-20.39,-19.61,0,*5A
1488916838.89,29154,9.5,72900.5,-9.89,-20.39,-19.61,0,*54
1488916840.15,29155,9.5,72904.3,-9.91,-20.39,-19.61,0,*5C
1488916841.41,29156,9.5,72904.0,-9.91,-20.39,-19.61,0,*5F
1488916842.67,29157,9.5,72904.0,-9.91,-20.39,-19.61,0,*5E
1488916843.93,29158,9.5,72906.0,-9.91,-20.39,-19.61,0,*51
1488916845.19,29159,9.5,72908.8,-9.91,-20.39,-19.61,0,*50
1488916846.45,29160,9.5,72904.8,-9.91,-20.39,-19.61,0,*5A
1488916847.71,29161,9.5,72906.3,-9.91,-20.39,-19.61,0,*5B
1488916848.97,29162,9.5,72906.0,-9.95,-20.43,-19.65,0,*55
1488916850.23,29163,9.5,72908.0,-9.95,-20.43,-19.65,0,*54
1488916851.49,29164,9.5,72906.0,-9.95,-20.43,-19.65,0,*53
1488916852.76,29165,9.5,72906.5,-9.95,-20.43,-19.65,0,*52
1488916854.02,29166,9.5,72906.3,-9.91,-20.39,-19.61,0,*5C
1488916855.28,29167,9.5,72906.5,-9.95,-20.43,-19.65,0,*50
1488916856.54,29168,9.5,72904.5,-9.95,-20.43,-19.65,0,*5F
1488916857.78,29169,9.5,72906.0,-9.97,-20.43,-19.65,0,*5C
1488916859.02,29170,9.5,72904.8,-9.97,-20.43,-19.57,0,*55
1488916860.29,29171,9.5,72906.3,-9.95,-20.43,-19.57,0,*56
1488916861.55,29172,9.5,72906.3,-9.95,-20.43,-19.65,0,*54
1488916862.83,29173,9.5,72904.8,-9.95,-20.49,-19.65,0,*5F
1488916864.1,29174,9.5,72904.5,-9.91,-20.43,-19.61,0,*52
1488916865.38,29175,9.5,72908.8,-9.95,-20.49,-19.65,0,*59
1488916866.63,29176,9.5,72906.0,-9.95,-20.49,-19.71,0,*5F
1488916867.91,29177,9.5,72906.5,-9.95,-20.49,-19.65,0,*5B
1488916869.19,29178,9.5,72904.5,-9.95,-20.49,-19.65,0,*54
1488916870.45,29179,9.5,72908.8,-9.97,-20.49,-19.65,0,*57
1488916871.68,29180,9.5,72908.0,-9.97,-20.49,-19.71,0,*54
1488916872.94,29181,9.5,72906.3,-9.97,-20.49,-19.81,0,*5A
1488916874.2,29182,9.5,72906.0,-9.95,-20.59,-19.81,0,*5A
1488916875.44,29183,9.5,72904.8,-9.97,-20.59,-19.81,0,*59
1488916876.71,29184,9.5,72906.0,-9.95,-20.49,-19.81,0,*5D
1488916877.95,29185,9.5,72906.5,-9.97,-20.49,-19.71,0,*51
1488916879.2,29186,9.5,72904.3,-9.95,-20.49,-19.71,0,*50
1488916880.46,29187,9.5,72904.0,-9.97,-20.49,-19.65,0,*56
1488916881.72,29188,9.5,72904.5,-9.97,-20.49,-19.81,0,*53
1488916882.97,29189,9.5,72906.0,-9.95,-20.59,-19.81,0,*51
1488916884.21,29190,9.5,72908.0,-9.97,-20.49,-19.71,0,*55
1488916885.44,29191,9.5,72906.3,-9.97,-20.49,-19.71,0,*54
1488916886.68,29192,9.5,72908.0,-9.97,-20.59,-19.81,0,*59
1488916887.96,29193,9.5,72900.0,-9.95,-20.49,-19.81,0,*5B
1488916889.21,29194,9.5,72904.5,-9.97,-20.49,-19.85,0,*5A
1488916890.44,29195,9.5,72906.0,-9.97,-20.73,-19.85,0,*52
1488916891.7,29196,9.5,72904.8,-9.99,-20.79,-19.99,0,*58
1488916892.94,29197,9.5,72906.0,-10.01,-20.79,-19.99,0,*60
1488916894.19,29198,9.5,72906.5,-9.99,-20.53,-19.91,0,*56
1488916895.45,29199,9.5,72908.3,-9.99,-20.53,-19.91,0,*57
1488916896.69,29200,9.5,72906.0,-9.99,-20.63,-19.99,0,*5F
1488916897.92,29201,9.5,72904.0,-9.99,-20.69,-19.91,0,*5C
1488916899.13,29202,9.5,72902.8,-10.01,-20.69,-19.99,0,*6E
1488916900.36,29203,9.5,72906.3,-9.99,-20.69,-19.91,0,*5E
1488916901.6,29204,9.5,72906.5,-9.99,-20.69,-19.99,0,*51
1488916902.83,29205,9.5,72906.0,-9.99,-20.69,-19.99,0,*50
1488916904.06,29206,9.5,72904.3,-9.99,-20.69,-19.99,0,*53
1488916905.28,29207,9.5,72904.8,-10.01,-20.63,-19.99,0,*61
1488916906.51,29208,9.5,72904.5,-9.99,-20.63,-20.05,0,*58
1488916907.75,29209,9.5,72906.8,-9.99,-20.63,-19.91,0,*5E
1488916908.96,29210,9.5,72906.8,-10.01,-20.69,-19.91,0,*65
1488916910.22,29211,9.5,72904.0,-9.99,-20.79,-20.05,0,*5B
1488916911.46,29212,9.5,72904.5,-10.01,-20.79,-20.05,0,*61
1488916912.67,29213,9.5,72904.8,-10.01,-20.69,-19.99,0,*6E
1488916913.91,29214,9.5,72906.5,-10.01,-20.79,-20.05,0,*67
1488916915.15,29215,9.5,72906.0,-10.01,-20.79,-19.99,0,*69
1488916916.4,29216,9.5,72906.0,-9.99,-20.79,-20.05,0,*5C
1488916917.64,29217,9.5,72904.8,-10.01,-20.79,-19.99,0,*6B
1488916918.88,29218,9.5,72906.0,-10.01,-20.79,-20.05,0,*6B
1488916920.14,29219,9.5,72904.5,-9.99,-20.79,-20.05,0,*53
1488916921.38,29220,9.5,72904.8,-10.03,-20.89,-20.09,0,*61
1488916922.62,29221,9.5,72906.8,-10.01,-20.83,-20.05,0,*64
1488916923.88,29222,9.5,72906.0,-10.01,-20.83,-20.15,0,*66
1488916925.13,29223,9.5,72904.5,-10.03,-20.89,-20.09,0,*62
1488916926.39,29224,9.5,72904.0,-10.03,-20.83,-20.09,0,*6F
1488916927.63,29225,9.5,72904.5,-10.05,-20.89,-20.15,0,*6F
1488916928.87,29226,9.5,72906.5,-10.03,-20.73,-20.09,0,*62
1488916930.16,29227,9.5,72904.5,-10.03,-20.83,-20.19,0,*6D
1488916931.43,29228,9.5,72906.5,-10.03,-20.89,-20.19,0,*68
1488916932.7,29229,9.5,72904.3,-10.03,-20.89,-20.19,0,*69
1488916933.92,29230,9.5,72904.0,-10.05,-20.89,-20.25,0,*68
1488916935.19,29231,9.5,72906.5,-10.03,-20.83,-20.09,0,*6B
1488916936.42,29232,9.5,72906.0,-10.05,-20.89,-20.15,0,*69
1488916937.66,29233,9.5,72908.8,-10.05,-20.79,-20.25,0,*64
1488916938.92,29234,9.5,72904.5,-10.05,-20.79,-20.15,0,*60
1488916940.16,29235,9.5,72906.8,-10.05,-20.79,-20.09,0,*6C
1488916941.41,29236,9.5,72906.5,-10.05,-20.79,-20.15,0,*62
1488916942.65,29237,9.5,72904.8,-10.03,-20.73,-20.09,0,*62
1488916943.91,29238,9.5,72906.3,-10.05,-20.79,-20.15,0,*6C
1488916945.14,29239,9.5,72906.8,-10.03,-20.73,-20.05,0,*60
1488916946.38,29240,9.5,72906.8,-10.05,-20.79,-20.09,0,*6E
1488916947.59,29241,9.5,72904.0,-10.05,-20.73,-20.09,0,*65
1488916948.83,29242,9.5,72906.8,-10.05,-20.63,-20.15,0,*6A
1488916950.04,29243,9.5,72908.0,-10.05,-20.73,-20.09,0,*67
1488916951.25,29244,9.5,72904.3,-10.05,-20.63,-20.09,0,*61
1488916952.46,29245,9.5,72908.5,-10.05,-20.73,-19.99,0,*62
1488916953.69,29246,9.5,72906.8,-10.05,-20.73,-20.15,0,*6F
1488916954.93,29247,9.5,72904.8,-10.05,-20.63,-20.15,0,*6F
1488916956.17,29248,9.5,72906.0,-10.03,-20.69,-20.05,0,*6D
1488916957.4,29249,9.5,72906.8,-10.05,-20.63,-20.15,0,*61
1488916958.62,29250,9.5,72906.3,-10.05,-20.73,-20.25,0,*6B
1488916959.86,29251,9.5,72904.8,-10.05,-20.79,-20.25,0,*60
1488916961.1,29252,9.5,72906.0,-10.07,-20.73,-20.25,0,*6B
1488916962.33,29253,9.5,72904.3,-10.07,-20.73,-20.09,0,*64
1488916963.59,29254,9.5,72904.5,-10.07,-20.73,-20.15,0,*6E
1488916964.85,29255,9.5,72904.3,-10.07,-20.63,-20.15,0,*6E
1488916966.09,29256,9.5,72906.5,-10.07,-20.73,-20.25,0,*6F
1488916967.33,29257,9.5,72904.3,-10.07,-20.73,-20.25,0,*6E
1488916968.57,29258,9.5,72904.5,-10.07,-20.73,-20.29,0,*6D
1488916969.78,29259,9.5,72906.8,-10.09,-20.73,-20.29,0,*62
1488916971.02,29260,9.5,72904.3,-10.07,-20.73,-20.25,0,*6A
1488916972.29,29261,9.5,72904.8,-10.07,-20.79,-20.25,0,*61
1488916973.51,29262,9.5,72906.8,-10.09,-20.73,-20.29,0,*6A
1488916974.75,29263,9.5,72904.8,-10.09,-20.79,-20.25,0,*6D
1488916976.0,29264,9.5,72904.3,-10.07,-20.89,-20.29,0,*67
1488916977.24,29265,9.5,72904.8,-10.09,-20.79,-20.29,0,*67
1488916978.5,29266,9.5,72910.3,-10.07,-20.79,-20.29,0,*6A
1488916979.74,29267,9.5,72906.3,-10.09,-20.89,-20.35,0,*67
1488916980.97,29268,9.5,72904.3,-10.09,-20.89,-20.43,0,*69
1488916982.25,29269,9.5,72906.8,-10.07,-20.89,-20.49,0,*6C
1488916983.49,29270,9.5,72904.3,-10.09,-20.79,-20.43,0,*6F
1488916984.74,29271,9.5,72904.8,-10.09,-20.79,-20.43,0,*6E
1488916985.99,29272,9.5,72904.0,-10.09,-20.79,-20.43,0,*6D
1488916987.25,29273,9.5,72904.8,-10.09,-20.79,-20.35,0,*6D
1488916988.5,29274,9.5,72904.3,-10.09,-20.79,-20.43,0,*6B
1488916989.78,29275,9.5,72904.5,-10.09,-20.79,-20.49,0,*60
1488916991.07,29276,9.5,72904.3,-10.13,-20.79,-20.53,0,*63
1488916992.29,29277,9.5,72904.3,-10.09,-20.73,-20.43,0,*62
1488916993.51,29278,9.5,72904.5,-10.09,-20.73,-20.43,0,*6D
1488916994.75,29279,9.5,72910.5,-10.13,-20.69,-20.39,0,*61
1488916996.02,29280,9.5,72906.0,-10.13,-20.79,-20.63,0,*69
1488916997.28,29281,9.5,72906.3,-10.13,-20.79,-20.63,0,*68
1488916998.5,29282,9.5,72908.0,-10.15,-20.73,-20.59,0,*6E
1488916999.77,29283,9.5,72904.5,-10.13,-20.83,-20.63,0,*6F
1488917001.0,29284,9.5,72902.8,-10.15,-20.99,-20.69,0,*6F
1488917002.27,29285,9.5,72904.5,-10.13,-20.83,-20.63,0,*69
1488917003.54,29286,9.5,72906.8,-10.13,-20.83,-20.63,0,*6A
1488917004.81,29287,9.5,72908.3,-10.13,-20.83,-20.69,0,*61
1488917006.03,29288,9.5,72904.8,-10.09,-20.73,-20.59,0,*69
1488917007.32,29289,9.5,72906.5,-10.13,-20.79,-20.49,0,*68
1488917008.59,29290,9.5,72906.8,-10.13,-20.79,-20.63,0,*68
1488917009.79,29291,9.5,72904.3,-10.15,-20.73,-20.69,0,*6F
1488917011.03,29292,9.5,72910.5,-10.15,-20.83,-20.73,0,*68
1488917012.27,29293,9.5,72906.5,-10.19,-20.83,-20.69,0,*6E
1488917013.51,29294,9.5,72906.8,-10.15,-20.83,-20.73,0,*6E
1488917014.75,29295,9.5,72906.5,-10.15,-20.83,-20.73,0,*6F
1488917015.99,29296,9.5,72908.5,-10.19,-20.83,-20.73,0,*60
1488917017.21,29297,9.5,72906.8,-10.19,-20.73,-20.73,0,*6E
1488917018.47,29298,9.5,72904.0,-10.21,-20.79,-20.73,0,*60
1488917019.68,29299,9.5,72908.3,-10.15,-20.73,-20.69,0,*67
1488917020.89,29300,9.5,72906.0,-10.19,-20.73,-20.69,0,*6A
1488917022.1,29301,9.5,72908.3,-10.19,-20.73,-20.69,0,*6B
1488917023.31,29302,9.5,72906.0,-10.19,-20.73,-20.69,0,*68
1488917024.55,29303,9.5,72906.3,-10.19,-20.73,-20.83,0,*6D
1488917025.82,29304,9.5,72908.5,-10.19,-20.83,-20.83,0,*65
1488917027.08,29305,9.5,72904.0,-10.19,-20.83,-20.83,0,*64
1488917028.32,29306,9.5,72906.8,-10.19,-20.73,-20.83,0,*68
1488917029.61,29307,9.5,72906.8,-10.21,-20.79,-20.79,0,*6D
1488917030.85,29308,9.5,72906.5,-10.21,-20.63,-20.73,0,*63
1488917032.07,29309,9.5,72906.3,-10.19,-20.59,-20.69,0,*6B
1488917033.31,29310,9.5,72906.8,-10.21,-20.63,-20.73,0,*6A
1488917034.54,29311,9.5,72908.3,-10.19,-20.59,-20.73,0,*69
1488917035.76,29312,9.5,72908.0,-10.19,-20.59,-20.73,0,*6A
1488917037.02,29313,9.5,72910.5,-10.21,-20.73,-20.79,0,*62
1488917038.28,29314,9.5,72906.3,-10.21,-20.63,-20.79,0,*64
1488917039.54,29315,9.5,72904.0,-10.21,-20.73,-20.79,0,*64
1488917040.8,29316,9.5,72906.8,-10.21,-20.63,-20.79,0,*66
1488917042.07,29317,9.5,72906.5,-10.21,-20.63,-20.79,0,*67
1488917043.33,29318,9.5,72906.0,-10.21,-20.59,-20.79,0,*61
1488917044.59,29319,9.5,72908.8,-10.21,-20.63,-20.89,0,*66
1488917045.83,29320,9.5,72910.5,-10.21,-20.73,-20.89,0,*6D
1488917047.08,29321,9.5,72910.0,-10.21,-20.73,-20.89,0,*6C
1488917048.31,29322,9.5,72904.3,-10.21,-20.73,-20.93,0,*64
1488917049.55,29323,9.5,72906.5,-10.21,-20.73,-20.93,0,*65
1488917050.82,29324,9.5,72902.0,-10.25,-20.69,-20.99,0,*67
1488917052.06,29325,9.5,72910.3,-10.21,-20.63,-20.93,0,*62
1488917053.28,29326,9.5,72904.3,-10.23,-20.73,-20.93,0,*62
1488917054.54,29327,9.5,72908.5,-10.23,-20.79,-21.03,0,*61
1488917055.8,29328,9.5,72906.3,-10.23,-20.79,-21.03,0,*6E
1488917057.05,29329,9.5,72910.8,-10.21,-20.79,-21.09,0,*67
1488917058.29,29330,9.5,72910.8,-10.21,-20.73,-20.93,0,*67
1488917059.56,29331,9.5,72910.5,-10.25,-20.69,-20.99,0,*63
1488917060.78,29332,9.5,72908.8,-10.23,-20.63,-20.93,0,*66
1488917061.99,29333,9.5,72904.0,-10.23,-20.73,-20.93,0,*66
1488917063.2,29334,9.5,72908.3,-10.23,-20.63,-20.93,0,*60
1488917064.45,29335,9.5,72906.3,-10.25,-20.69,-20.93,0,*6D
1488917065.71,29336,9.5,72906.3,-10.25,-20.69,-20.99,0,*64
1488917066.98,29337,9.5,72908.3,-10.25,-20.69,-20.99,0,*65
1488917068.24,29338,9.5,72904.3,-10.25,-20.69,-20.99,0,*6A
1488917069.48,29339,9.5,72908.8,-10.23,-20.63,-21.03,0,*65
1488917070.78,29340,9.5,72908.3,-10.25,-20.79,-21.23,0,*64
1488917072.04,29341,9.5,72910.3,-10.25,-20.79,-21.13,0,*66
1488917073.24,29342,9.5,72908.0,-10.23,-20.73,-21.09,0,*62
1488917074.48,29343,9.5,72904.5,-10.25,-20.69,-21.13,0,*65
1488917075.75,29344,9.5,72906.5,-10.25,-20.63,-20.99,0,*6B
1488917077.04,29345,9.5,72908.3,-10.25,-20.53,-20.99,0,*69
1488917078.31,29346,9.5,72906.8,-10.25,-20.63,-20.99,0,*69
1488917079.53,29347,9.5,72904.5,-10.23,-20.59,-20.93,0,*6D
1488917080.76,29348,9.5,72908.8,-10.25,-20.63,-21.09,0,*6F
1488917082.0,29349,9.5,72910.0,-10.25,-20.69,-21.09,0,*64
1488917083.23,29350,9.5,72910.8,-10.25,-20.63,-21.09,0,*66
1488917084.5,29351,9.5,72908.0,-10.25,-20.63,-20.99,0,*6F
1488917085.77,29352,9.5,72904.8,-10.25,-20.63,-20.99,0,*6C
1488917087.03,29353,9.5,72908.3,-10.25,-20.79,-21.13,0,*65
1488917088.33,29354,9.5,72906.8,-10.25,-20.79,-21.23,0,*61
1488917089.54,29355,9.5,72906.5,-10.23,-20.63,-21.09,0,*65
1488917090.83,29356,9.5,72904.5,-10.25,-20.79,-21.23,0,*63
1488917092.1,29357,9.5,72908.5,-10.25,-20.69,-21.23,0,*63
1488917093.36,29358,9.5,72904.5,-10.25,-20.79,-21.13,0,*6E
1488917094.6,29359,9.5,72910.0,-10.25,-20.69,-21.13,0,*6E
1488917095.86,29360,9.5,72908.3,-10.25,-20.79,-21.09,0,*6E
1488917097.15,29361,9.5,72906.8,-10.25,-20.79,-21.23,0,*67
1488917098.42,29362,9.5,72906.8,-10.27,-20.79,-21.27,0,*62
1488917099.71,29363,9.5,72904.8,-10.25,-20.79,-21.27,0,*61
1488917101.0,29364,9.5,72908.3,-10.25,-20.79,-21.27,0,*66
1488917102.27,29365,9.5,72910.0,-10.27,-20.79,-21.27,0,*65
1488917103.48,29366,9.5,72906.8,-10.27,-20.93,-21.39,0,*6D
1488917104.69,29367,9.5,72908.0,-10.27,-20.93,-21.43,0,*61
1488917105.95,29368,9.5,72908.0,-10.27,-20.83,-21.27,0,*6D
1488917107.22,29369,9.5,72904.3,-10.29,-20.99,-21.47,0,*6F
1488917108.46,29370,9.5,72910.3,-10.27,-20.83,-21.43,0,*66
1488917109.73,29371,9.5,72908.3,-10.29,-20.99,-21.39,0,*6F
1488917110.94,29372,9.5,72904.8,-10.27,-20.93,-21.43,0,*65
1488917112.18,29373,9.5,72904.8,-10.27,-20.93,-21.27,0,*66
1488917113.47,29374,9.5,72910.5,-10.29,-20.99,-21.57,0,*62
1488917114.7,29375,9.5,72906.0,-10.27,-20.99,-21.47,0,*6C
1488917115.94,29376,9.5,72910.8,-10.27,-20.93,-21.57,0,*64
1488917117.21,29377,9.5,72908.8,-10.29,-20.99,-21.47,0,*60
1488917118.48,29378,9.5,72906.3,-10.29,-20.89,-21.33,0,*6D
1488917119.74,29379,9.5,72908.5,-10.29,-20.99,-21.47,0,*6E
1488917121.04,29380,9.5,72906.3,-10.29,-21.03,-21.67,0,*68
1488917122.31,29381,9.5,72906.5,-10.29,-21.03,-21.47,0,*6B
1488917123.58,29382,9.5,72908.5,-10.29,-20.99,-21.47,0,*6A
1488917124.87,29383,9.5,72904.5,-10.29,-21.03,-21.57,0,*68
1488917126.13,29384,9.5,72910.5,-10.29,-21.13,-21.57,0,*6E
1488917127.37,29385,9.5,72906.8,-10.29,-21.13,-21.77,0,*6D
1488917128.66,29386,9.5,72908.5,-10.29,-21.03,-21.57,0,*6D
1488917129.95,29387,9.5,72906.8,-10.29,-20.99,-21.57,0,*6E
1488917131.19,29388,9.5,72906.8,-10.29,-21.17,-21.77,0,*64
1488917132.46,29389,9.5,72906.5,-10.29,-21.17,-21.67,0,*64
1488917133.72,29390,9.5,72910.3,-10.29,-21.13,-21.57,0,*6B
1488917135.01,29391,9.5,72908.5,-10.29,-21.03,-21.57,0,*6B
1488917136.26,29392,9.5,72908.5,-10.29,-21.13,-21.77,0,*6B
1488917137.52,29393,9.5,72908.5,-10.29,-21.17,-21.83,0,*65
1488917138.79,29394,9.5,72908.5,-10.31,-21.03,-21.67,0,*64
1488917140.03,29395,9.5,72914.0,-10.31,-21.13,-21.67,0,*64
1488917141.27,29396,9.5,72910.3,-10.31,-21.03,-21.77,0,*67
1488917142.53,29397,9.5,72906.5,-10.31,-21.03,-21.67,0,*67
1488917143.77,29398,9.5,72908.8,-10.31,-21.17,-21.83,0,*67
1488917145.01,29399,9.5,72908.8,-10.31,-21.27,-21.77,0,*6E
1488917146.26,29400,9.5,72910.5,-10.29,-21.17,-21.77,0,*63
1488917147.52,29401,9.5,72908.3,-10.31,-21.27,-21.83,0,*63
1488917148.76,29402,9.5,72910.3,-10.31,-21.33,-21.93,0,*64
1488917149.97,29403,9.5,72904.0,-10.31,-21.43,-21.93,0,*62
1488917151.21,29404,9.5,72910.0,-10.31,-21.39,-21.87,0,*6D
1488917152.47,29405,9.5,72904.8,-10.29,-21.43,-21.97,0,*69
1488917153.76,29406,9.5,72908.0,-10.33,-21.33,-21.87,0,*67
1488917155.03,29407,9.5,72910.8,-10.31,-21.27,-21.83,0,*65
1488917156.32,29408,9.5,72908.0,-10.33,-21.33,-21.97,0,*68
1488917157.53,29409,9.44,72906.8,-10.31,-21.43,-21.93,0,*68
1488917158.74,29410,9.5,72908.5,-10.31,-21.43,-21.93,0,*60
1488917159.98,29411,9.5,72910.5,-10.33,-21.47,-22.03,0,*6D
1488917161.24,29412,9.5,72906.5,-10.33,-21.47,-21.97,0,*60
1488917162.5,29413,9.5,72906.8,-10.33,-21.47,-21.97,0,*61
1488917163.74,29414,9.5,72908.3,-10.31,-21.33,-21.93,0,*63
1488917165.03,29415,9.5,72910.0,-10.33,-21.33,-21.97,0,*64
1488917166.29,29416,9.5,72908.0,-10.33,-21.47,-21.97,0,*64
1488917167.56,29417,9.5,72908.5,-10.33,-21.47,-21.97,0,*65
1488917168.79,29418,9.5,72908.3,-10.31,-21.57,-22.07,0,*63
1488917170.03,29419,9.5,72910.8,-10.31,-21.47,-21.97,0,*69
1488917171.27,29420,9.5,72910.0,-10.33,-21.39,-22.03,0,*66
1488917172.51,29421,9.5,72908.3,-10.33,-21.47,-22.11,0,*6D
1488917173.72,29422,9.5,72906.5,-10.35,-21.47,-22.03,0,*6B
1488917174.99,29423,9.5,72904.8,-10.33,-21.53,-22.03,0,*69
1488917176.26,29424,9.5,72906.8,-10.33,-21.53,-22.03,0,*6E
1488917177.5,29425,9.5,72908.5,-10.33,-21.47,-22.03,0,*6A
1488917178.74,29426,9.5,72910.3,-10.33,-21.47,-22.03,0,*69
1488917180.01,29427,9.5,72910.0,-10.33,-21.53,-22.03,0,*6D
1488917181.26,29428,9.5,72910.0,-10.35,-21.67,-22.03,0,*63
1488917182.5,29429,9.5,72910.8,-10.35,-21.67,-22.03,0,*62
1488917183.75,29430,9.5,72910.5,-10.35,-21.53,-22.03,0,*6D
1488917185.02,29431,9.5,72910.3,-10.37,-21.67,-22.07,0,*6D
1488917186.23,29432,9.5,72906.8,-10.35,-21.63,-22.03,0,*6C
1488917187.48,29433,9.5,72910.8,-10.35,-21.53,-22.03,0,*6E
1488917188.69,29434,9.5,72908.5,-10.35,-21.63,-22.11,0,*69
1488917189.99,29435,9.5,72910.3,-10.37,-21.57,-22.17,0,*6B
1488917191.23,29436,9.5,72908.3,-10.37,-21.73,-22.07,0,*6F
1488917192.44,29437,9.5,72910.8,-10.35,-21.63,-22.11,0,*6A
1488917193.66,29438,9.5,72908.3,-10.35,-21.63,-22.03,0,*66
1488917194.9,29439,9.5,72910.3,-10.35,-21.67,-22.03,0,*63
1488917196.14,29440,9.5,72908.3,-10.37,-21.73,-22.07,0,*6E
1488917197.39,29441,9.5,72908.3,-10.35,-21.73,-22.17,0,*6C
1488917198.66,29442,9.5,72910.0,-10.35,-21.67,-22.17,0,*6A
1488917199.93,29443,9.5,72908.3,-10.37,-21.73,-22.21,0,*69
1488917201.2,29444,9.5,72910.3,-10.37,-21.73,-22.17,0,*6B
1488917202.48,29445,9.5,72912.3,-10.37,-21.77,-22.31,0,*6A
1488917203.75,29446,9.5,72908.8,-10.37,-21.73,-22.17,0,*69
1488917205.0,29447,9.5,72910.8,-10.35,-21.53,-22.03,0,*6D
1488917206.27,29448,9.5,72912.0,-10.37,-21.67,-22.07,0,*63
1488917207.53,29449,9.5,72910.5,-10.37,-21.77,-22.21,0,*67
1488917208.81,29450,9.5,72910.0,-10.37,-21.73,-22.17,0,*6E
1488917210.05,29451,9.5,72908.5,-10.35,-21.73,-22.17,0,*6D
1488917211.33,29452,9.5,72908.3,-10.37,-21.77,-22.31,0,*6C
1488917212.59,29453,9.5,72910.5,-10.37,-21.77,-22.21,0,*6C
1488917213.86,29454,9.5,72908.8,-10.37,-21.77,-22.21,0,*6B
1488917215.13,29455,9.5,72912.0,-10.37,-21.77,-22.21,0,*6A
1488917216.4,29456,9.5,72908.0,-10.37,-21.73,-22.17,0,*68
1488917217.7,29457,9.5,72910.3,-10.41,-21.83,-22.21,0,*62
1488917218.94,29458,9.5,72910.0,-10.41,-21.93,-22.37,0,*6B
1488917220.19,29459,9.5,72910.3,-10.41,-21.93,-22.27,0,*6B
1488917221.44,29460,9.5,72908.0,-10.41,-21.93,-22.27,0,*61
1488917222.71,29461,9.5,72910.3,-10.41,-21.97,-22.37,0,*65
1488917223.95,29462,9.5,72910.8,-10.41,-21.93,-22.37,0,*62
1488917225.2,29463,9.5,72912.3,-10.43,-21.97,-22.27,0,*64
1488917226.41,29464,9.5,72908.3,-10.43,-21.93,-22.41,0,*67
1488917227.65,29465,9.5,72910.3,-10.43,-21.97,-22.37,0,*63
1488917228.87,29466,9.5,72912.3,-10.43,-21.93,-22.37,0,*64
1488917230.11,29467,9.5,72908.3,-10.43,-21.97,-22.53,0,*63
1488917231.35,29468,9.5,72910.3,-10.43,-21.97,-22.41,0,*6F
1488917232.59,29469,9.5,72908.3,-10.43,-21.97,-22.41,0,*6E
1488917233.83,29470,9.5,72910.3,-10.41,-21.93,-22.37,0,*61
1488917235.05,29471,9.5,72908.5,-10.43,-21.93,-22.37,0,*62
1488917236.29,29472,9.44,72906.5,-10.43,-21.97,-22.27,0,*64
1488917237.53,29473,9.5,72910.3,-10.43,-21.97,-22.37,0,*64
1488917238.78,29474,9.44,72908.5,-10.43,-21.93,-22.21,0,*60
1488917240.02,29475,9.5,72910.3,-10.43,-21.93,-22.21,0,*61
1488917241.27,29476,9.5,72910.3,-10.43,-21.97,-22.27,0,*60
1488917242.48,29477,9.5,72912.0,-10.43,-22.11,-22.37,0,*6D
1488917243.69,29478,9.5,72908.5,-10.43,-22.07,-22.53,0,*67
1488917244.93,29479,9.5,72910.8,-10.41,-22.11,-22.41,0,*60
1488917246.14,29480,9.5,72910.5,-10.43,-22.07,-22.41,0,*63
1488917247.35,29481,9.5,72914.0,-10.43,-22.07,-22.37,0,*63
1488917248.56,29482,9.5,72908.5,-10.45,-22.11,-22.41,0,*60
1488917249.76,29483,9.5,72910.3,-10.45,-22.07,-22.41,0,*66
1488917250.99,29484,9.5,72910.5,-10.45,-21.97,-22.27,0,*6B
1488917252.21,29485,9.5,72908.0,-10.45,-21.93,-22.37,0,*6F
1488917253.43,29486,9.44,72910.0,-10.47,-22.03,-22.41,0,*65
1488917254.65,29487,9.5,72912.0,-10.45,-22.11,-22.53,0,*66
1488917255.85,29488,9.5,72912.5,-10.45,-22.07,-22.41,0,*6D
1488917257.06,29489,9.5,72912.5,-10.43,-22.07,-22.53,0,*69
1488917258.3,29490,9.5,72908.8,-10.45,-22.21,-22.53,0,*63
1488917259.54,29491,9.5,72912.3,-10.45,-22.21,-22.41,0,*61
1488917260.74,29492,9.44,72908.3,-10.45,-22.11,-22.41,0,*61
1488917261.95,29493,9.5,72908.8,-10.45,-22.07,-22.41,0,*67
1488917263.24,29494,9.44,72908.5,-10.47,-22.17,-22.47,0,*65
1488917264.48,29495,9.5,72910.8,-10.47,-22.11,-22.57,0,*63
1488917265.74,29496,9.5,72912.0,-10.47,-22.17,-22.57,0,*66
1488917266.98,29497,9.5,72912.5,-10.47,-22.27,-22.57,0,*64
1488917268.26,29498,9.5,72912.8,-10.47,-22.31,-22.73,0,*6A
1488917269.52,29499,9.5,72910.5,-10.47,-22.31,-22.63,0,*6A
1488917270.73,29500,9.44,72908.0,-10.45,-22.27,-22.41,0,*6E
1488917271.97,29501,9.44,72908.3,-10.45,-22.21,-22.53,0,*6A
1488917273.26,29502,9.5,72916.3,-10.47,-22.17,-22.47,0,*6B
1488917274.47,29503,9.44,72908.8,-10.45,-22.11,-22.37,0,*69
1488917275.69,29504,9.44,72910.3,-10.45,-22.11,-22.37,0,*6E
1488917276.92,29505,9.5,72912.0,-10.47,-22.11,-22.57,0,*6B
1488917278.18,29506,9.44,72910.8,-10.47,-22.11,-22.47,0,*69
1488917279.48,29507,9.44,72910.5,-10.47,-22.17,-22.47,0,*6E
1488917280.75,29508,9.44,72908.3,-10.47,-22.17,-22.57,0,*60
1488917282.01,29509,9.44,72910.3,-10.47,-22.31,-22.57,0,*65
1488917283.27,29510,9.44,72912.3,-10.47,-22.31,-22.57,0,*6D
1488917284.51,29511,9.5,72910.8,-10.49,-22.31,-22.57,0,*62
1488917285.72,29512,9.44,72910.0,-10.49,-22.27,-22.57,0,*66
1488917286.96,29513,9.44,72908.3,-10.49,-22.31,-22.57,0,*60
1488917288.22,29514,9.44,72910.3,-10.49,-22.31,-22.73,0,*61
1488917289.49,29515,9.44,72912.0,-10.47,-22.31,-22.63,0,*6F
1488917290.72,29516,9.44,72912.0,-10.47,-22.41,-22.63,0,*6B
1488917291.98,29517,9.5,72912.5,-10.47,-22.41,-22.73,0,*6B
1488917293.19,29518,9.44,72910.5,-10.49,-22.41,-22.63,0,*6B
1488917294.44,29519,9.5,72914.3,-10.51,-22.53,-22.67,0,*64
1488917295.7,29520,9.44,72914.0,-10.51,-22.31,-22.63,0,*6E
1488917296.95,29521,9.5,72914.3,-10.49,-22.27,-22.47,0,*67
1488917298.16,29522,9.5,72914.0,-10.49,-22.27,-22.57,0,*65
1488917299.41,29523,9.44,72912.8,-10.51,-22.37,-22.67,0,*6F
1488917300.67,29524,9.44,72912.0,-10.51,-22.31,-22.63,0,*6A
1488917301.91,29525,9.44,72910.0,-10.49,-22.17,-22.41,0,*66
1488917303.16,29526,9.5,72912.0,-10.51,-22.37,-22.53,0,*6D
1488917304.42,29527,9.44,72910.8,-10.51,-22.31,-22.53,0,*6A
1488917305.66,29528,9.44,72910.5,-10.49,-22.31,-22.57,0,*68
1488917306.91,29529,9.44,72912.3,-10.51,-22.37,-22.63,0,*61
1488917308.15,29530,9.5,72914.8,-10.49,-22.31,-22.57,0,*61